Flag Weather past 2 weeks in Midland, Texas, U.S.A.

Now
50 °F

Clear.


Feels Like: 45 °F
Forecast: 43 / 71 °F
Wind: 12 mph from Southwest

Location: Midland - Midland Airpark

Current Time: Nov 28, 2014 at 2:39:50 AM

Latest Report: Nov 28, 2014 at 2:15 AM


Visibility: 10 mi

Pressure: 30.25 "Hg

Humidity: 58%

Dew point: 35 °F

Location of MidlandLocation

Historic Weather in Midland — Graph

°F

Midland temperature yesterday

Maximum temperature yesterday: 65 °F (at 4:15 PM)
Minimum temperature yesterday: 35 °F (at 7:35 AM)
Average temperature yesterday: 50 °F

Past Weeks' High & Low Weather Summary

 TemperatureHumidityPressure
High72 °F (Nov 20, 2:55 PM)100% (Nov 21, 4:55 AM)30.56 "Hg (Nov 21, 4:55 AM)
Low23 °F (Nov 17, 7:15 AM)12% (Nov 19, 2:55 PM)29.64 "Hg (Nov 23, 4:35 AM)
Average46 °F53%30.15 "Hg
* Reported Nov 13 1:15 AM — Nov 28 1:15 AM, Midland, Weather by CustomWeather, © 2014

Note: Actual official high and low records may vary slightly from our data, if they occured in-between our weather recording intervals... More about our weather records

Advertising

Midland weather history for previous 24 hours

 ConditionsComfort  
Time TempWeatherWind HumidityBarometerVisibility
1:15 AM
Nov 28
49 °FClear.12 mph57%30.26 "Hg10 mi
12:55 AM49 °FClear.12 mph56%30.26 "Hg10 mi
12:35 AM49 °FClear.10 mph54%30.27 "Hg10 mi
12:15 AM50 °FClear.12 mph52%30.28 "Hg10 mi
11:55 PM
Nov 27
50 °FClear.10 mph51%30.28 "Hg10 mi
11:35 PM50 °FClear.15 mph49%30.29 "Hg10 mi
11:15 PM51 °FClear.12 mph48%30.30 "Hg10 mi
10:55 PM51 °FClear.12 mph46%30.30 "Hg10 mi
10:35 PM51 °FClear.10 mph44%30.31 "Hg10 mi
10:15 PM52 °FClear.7 mph42%30.31 "Hg10 mi
9:15 PM52 °FClear.10 mph43%30.31 "Hg10 mi
8:35 PM54 °FClear.9 mph38%30.33 "Hg10 mi
8:15 PM53 °FClear.7 mph43%30.32 "Hg10 mi
7:55 PM53 °FClear.7 mph44%30.32 "Hg10 mi
7:35 PM53 °FClear.6 mph46%30.33 "Hg10 mi
7:15 PM56 °FClear.6 mph38%30.33 "Hg10 mi
6:55 PM55 °FClear.6 mph42%30.32 "Hg10 mi
6:35 PM56 °FClear.5 mph40%30.32 "Hg10 mi
6:15 PM58 °FClear.6 mph37%30.32 "Hg10 mi
5:55 PM59 °FClear.7 mph34%30.32 "Hg10 mi
5:35 PM62 °FSunny.7 mph32%30.32 "Hg10 mi
5:15 PM63 °FSunny.9 mph29%30.33 "Hg10 mi
4:55 PM64 °FSunny.10 mph29%30.33 "Hg10 mi
4:35 PM64 °FSunny.12 mph28%30.33 "Hg10 mi
4:15 PM65 °FSunny.8 mph29%30.33 "Hg10 mi
3:55 PM64 °FSunny.10 mph29%30.34 "Hg10 mi
3:35 PM64 °FSunny.9 mph28%30.34 "Hg10 mi
3:15 PM64 °FSunny.10 mph29%30.34 "Hg10 mi
2:55 PM63 °FSunny.10 mph31%30.35 "Hg10 mi
2:35 PM63 °FSunny.8 mph32%30.35 "Hg10 mi
2:15 PM62 °FSunny.6 mph33%30.37 "Hg10 mi
1:55 PM61 °FSunny.9 mph34%30.37 "Hg10 mi
1:15 PM60 °FSunny.8 mph36%30.40 "Hg10 mi
12:55 PM59 °FSunny.13 mph37%30.41 "Hg10 mi
12:35 PM58 °FSunny.10 mph39%30.43 "Hg10 mi
12:15 PM57 °FSunny.9 mph41%30.44 "Hg10 mi
11:55 AM56 °FSunny.12 mph44%30.46 "Hg10 mi
11:35 AM54 °FSunny.12 mph46%30.47 "Hg10 mi
11:15 AM53 °FSunny.9 mph48%30.48 "Hg10 mi
10:55 AM52 °FSunny.8 mph50%30.49 "Hg10 mi
10:15 AM49 °FSunny.10 mph54%30.49 "Hg10 mi
9:55 AM47 °FSunny.10 mph58%30.50 "Hg10 mi
9:35 AM46 °FSunny.9 mph61%30.50 "Hg10 mi
9:15 AM44 °FSunny.7 mph67%30.49 "Hg10 mi
8:55 AM42 °FSunny.No wind73%30.50 "Hg10 mi
8:15 AM37 °FSunny.No wind82%30.48 "Hg10 mi
7:55 AM36 °FSunny.No wind84%30.47 "Hg10 mi
7:35 AM35 °FSunny.No wind87%30.47 "Hg10 mi
7:15 AM35 °FClear.No wind87%30.47 "Hg10 mi
6:55 AM36 °FClear.No wind85%30.46 "Hg10 mi
6:35 AM36 °FClear.No wind84%30.46 "Hg10 mi
6:15 AM36 °FClear.No wind85%30.45 "Hg10 mi
5:55 AM36 °FClear.No wind84%30.44 "Hg10 mi
5:35 AM36 °FClear.No wind84%30.44 "Hg10 mi
5:15 AM36 °FClear.No wind85%30.44 "Hg10 mi
4:55 AM36 °FClear.No wind85%30.43 "Hg10 mi
4:35 AM37 °FClear.No wind82%30.43 "Hg10 mi
4:15 AM38 °FClear.No wind80%30.43 "Hg10 mi
3:55 AM39 °FClear.No wind78%30.43 "Hg10 mi
3:35 AM39 °FClear.No wind78%30.42 "Hg10 mi
3:15 AM38 °FClear.No wind78%30.41 "Hg10 mi
2:55 AM39 °FClear.No wind76%30.42 "Hg10 mi
2:15 AM40 °FClear.No wind76%30.41 "Hg10 mi
Weather by CustomWeather, © 2014

See weather overviewHow to use our weather pages